Weather History for KROX - March, 2013

Change the Weather History Date:

Sunday, March 17, 2013

  Actual Average Record
Temperature  
Mean Temperature 0 °F -  
Max Temperature 19 °F 32 °F 71 °F (2012)
Min Temperature -18 °F 9 °F -33 °F (1975)
Degree Days  
Heating Degree Days 64    
Moisture  
Dew Point -6 °F    
Average Humidity 66    
Maximum Humidity 80    
Minimum Humidity 49    
Precipitation  
Precipitation 0.00 in - - ()
Sea Level Pressure  
Sea Level Pressure 30.04 in    
Wind  
Wind Speed 6 mph (SE)    
Max Wind Speed 15 mph    
Max Gust Speed 22 mph    
Visibility 8 miles    
Events Snow    
Averages and records for this station are not official NWS values.
T = Trace of Precipitation, MM = Missing Value Source: NWS Daily Summary

Daily Weather History Graph

Daily Weather History Graph

Search for Another Location

Airport or City:

Trip Planner

Search our weather history database for the weather conditions in past years. The results will help you decide how hot, cold, wet, or windy it might be!

Date:

Astronomy

Mar. 17, 2013 Rise Set
Actual Time 7:31 AM CDT 7:31 PM CDT
Civil Twilight 6:59 AM CDT 8:03 PM CDT
Nautical Twilight 6:23 AM CDT 8:40 PM CDT
Astronomical Twilight 5:45 AM CDT 9:18 PM CDT
Moon 10:16 AM CDT (3/17) 1:07 AM CDT (3/17)
Length of Visible Light 13h 03m
Length of Day
12h 00m
Waxing Crescent, 31% of the Moon is Illuminated
Mar 17
Waxing Crescent
Mar 19
First Quarter
Mar 27
Full
Apr 2
Last Quarter
Apr 10
New

Hourly Weather History & Observations

Time (CDT) Temp. Windchill Dew Point Humidity Pressure Visibility Wind Dir Wind Speed Gust Speed Precip Events Conditions
12:14 AM -5.8 °F - -14.8 °F 65% 30.27 in 10.0 mi Calm Calm - N/A   Clear
12:34 AM -5.8 °F -14.5 °F -14.8 °F 65% 30.27 in 10.0 mi NW 3.5 mph - N/A   Clear
12:55 AM -5.8 °F - -14.8 °F 65% 30.27 in 10.0 mi Calm Calm - N/A   Clear
1:14 AM -7.6 °F -18.8 °F -14.8 °F 71% 30.28 in 10.0 mi SW 4.6 mph - N/A   Clear
1:34 AM -11.2 °F -20.6 °F -18.4 °F 70% 30.28 in 10.0 mi SW 3.5 mph - N/A   Clear
1:55 AM -9.4 °F - -16.6 °F 71% 30.27 in 10.0 mi Calm Calm - N/A   Clear
2:14 AM -11.2 °F - -16.6 °F 77% 30.27 in 10.0 mi Calm Calm - N/A   Clear
2:34 AM -9.4 °F - -16.6 °F 71% 30.27 in 10.0 mi Calm Calm - N/A   Clear
2:54 AM -11.2 °F - -16.6 °F 77% 30.26 in 10.0 mi Calm Calm - N/A   Clear
3:14 AM -13.0 °F - -18.4 °F 77% 30.25 in 10.0 mi Calm Calm - N/A   Clear
3:34 AM -14.8 °F - -20.2 °F 77% 30.25 in 10.0 mi Calm Calm - N/A   Clear
3:54 AM -18.4 °F - -25.6 °F 70% 30.24 in 10.0 mi Calm Calm - N/A   Clear
4:14 AM -16.6 °F - -23.8 °F 70% 30.23 in 10.0 mi Calm Calm - N/A   Clear
4:34 AM -16.6 °F - -23.8 °F 70% 30.22 in 10.0 mi Calm Calm - N/A   Clear
4:54 AM -18.4 °F -31.4 °F -23.8 °F 76% 30.22 in 10.0 mi SE 4.6 mph - N/A   Clear
5:14 AM -16.6 °F -29.3 °F -23.8 °F 70% 30.23 in 10.0 mi South 4.6 mph - N/A   Clear
5:34 AM -18.4 °F -31.4 °F -25.6 °F 70% 30.22 in 10.0 mi South 4.6 mph - N/A   Clear
5:54 AM -14.8 °F -32.2 °F -20.2 °F 77% 30.20 in 10.0 mi SE 8.1 mph - N/A   Clear
6:14 AM -14.8 °F -29.1 °F -20.2 °F 77% 30.20 in 10.0 mi SE 5.8 mph - N/A   Clear
6:34 AM -14.8 °F -30.8 °F -22.0 °F 70% 30.20 in 10.0 mi SE 6.9 mph - N/A   Clear
6:54 AM -16.6 °F -32.9 °F -22.0 °F 76% 30.20 in 10.0 mi SSE 6.9 mph - N/A   Clear
7:14 AM -13.0 °F -27.0 °F -20.2 °F 70% 30.18 in 10.0 mi SE 5.8 mph - N/A   Clear
7:34 AM -9.4 °F -22.7 °F -16.6 °F 71% 30.17 in 10.0 mi SE 5.8 mph - N/A   Clear
7:54 AM -9.4 °F -22.7 °F -16.6 °F 71% 30.17 in 10.0 mi SE 5.8 mph - N/A   Clear
8:15 AM -13.0 °F -28.6 °F -20.2 °F 70% 30.17 in 10.0 mi SSE 6.9 mph - N/A   Clear
8:34 AM -11.2 °F -23.0 °F -18.4 °F 70% 30.17 in 10.0 mi South 4.6 mph - N/A   Clear
8:54 AM -13.0 °F -22.7 °F -20.2 °F 70% 30.16 in 10.0 mi SSE 3.5 mph - N/A   Clear
9:13 AM -9.4 °F -20.9 °F -18.4 °F 65% 30.16 in 10.0 mi SSE 4.6 mph - N/A   Clear
9:34 AM -5.8 °F -21.2 °F -14.8 °F 65% 30.14 in 10.0 mi SE 8.1 mph - N/A   Scattered Clouds
9:54 AM -2.2 °F -16.8 °F -13.0 °F 60% 30.14 in 10.0 mi SE 8.1 mph - N/A   Scattered Clouds
10:14 AM -0.4 °F -13.4 °F -11.2 °F 60% 30.12 in 10.0 mi SE 6.9 mph - N/A   Clear
10:34 AM -0.4 °F -12.0 °F -11.2 °F 60% 30.11 in 10.0 mi SE 5.8 mph - N/A   Clear
10:54 AM 3.2 °F -12.2 °F -9.4 °F 56% 30.10 in 10.0 mi SSE 10.4 mph - N/A   Clear
11:14 AM 5.0 °F -10.0 °F -7.6 °F 56% 30.09 in 10.0 mi SSE 10.4 mph - N/A   Clear
11:34 AM 6.8 °F -8.6 °F -7.6 °F 52% 30.08 in 10.0 mi South 11.5 mph - N/A   Scattered Clouds
11:54 AM 8.6 °F -7.7 °F -5.8 °F 52% 30.07 in 10.0 mi SSE 13.8 mph - N/A   Scattered Clouds
12:14 PM 8.6 °F -6.3 °F -5.8 °F 52% 30.06 in 10.0 mi SSE 11.5 mph - N/A   Clear
12:34 PM 10.4 °F -4.1 °F -4.0 °F 52% 30.04 in 10.0 mi SSE 11.5 mph - N/A   Clear
12:54 PM 12.2 °F -3.1 °F -2.2 °F 53% 30.03 in 10.0 mi SSE 13.8 mph - N/A   Clear
1:14 PM 12.2 °F -3.1 °F -0.4 °F 57% 30.03 in 10.0 mi South 13.8 mph - N/A   Scattered Clouds
1:34 PM 12.2 °F -1.8 °F -2.2 °F 53% 30.02 in 10.0 mi SSE 11.5 mph - N/A   Scattered Clouds
1:54 PM 14.0 °F 0.5 °F -0.4 °F 53% 30.00 in 10.0 mi SSE 11.5 mph - N/A   Scattered Clouds
2:14 PM 14.0 °F 1.2 °F -0.4 °F 53% 30.00 in 10.0 mi South 10.4 mph - N/A   Clear
2:34 PM 15.8 °F 1.4 °F -0.4 °F 49% 29.99 in 10.0 mi South 13.8 mph - N/A   Clear
3:14 PM 15.8 °F 2.7 °F -0.4 °F 49% 29.97 in 10.0 mi South 11.5 mph - N/A   Scattered Clouds
3:34 PM 15.8 °F 2.1 °F -0.4 °F 49% 29.96 in 10.0 mi South 12.7 mph - N/A   Clear
3:54 PM 15.8 °F 1.4 °F 1.4 °F 53% 29.95 in 10.0 mi South 13.8 mph - N/A Snow Light Snow
4:14 PM 17.6 °F 5.7 °F 3.2 °F 53% 29.93 in 10.0 mi SSE 10.4 mph - N/A   Clear
4:34 PM 17.6 °F 3.2 °F 5.0 °F 58% 29.93 in 7.0 mi South 15.0 mph - N/A Snow Light Snow
4:54 PM 17.6 °F 5.7 °F 5.0 °F 58% 29.92 in 10.0 mi SSE 10.4 mph - N/A Snow Light Snow
5:14 PM 17.6 °F 5.7 °F 5.0 °F 58% 29.91 in 7.0 mi SE 10.4 mph - N/A Snow Light Snow
5:34 PM 17.6 °F 5.0 °F 6.8 °F 63% 29.90 in 10.0 mi SE 11.5 mph 16.1 mph N/A Snow Light Snow
5:54 PM 17.6 °F 5.0 °F 6.8 °F 63% 29.89 in 7.0 mi ESE 11.5 mph - N/A Snow Light Snow
6:14 PM 17.6 °F 5.0 °F 6.8 °F 63% 29.87 in 4.0 mi ESE 11.5 mph - N/A Snow Light Snow
6:34 PM 17.6 °F 5.7 °F 8.6 °F 68% 29.85 in 3.0 mi ESE 10.4 mph - N/A Snow Light Snow
6:54 PM 17.6 °F 5.0 °F 8.6 °F 68% 29.85 in 4.0 mi SE 11.5 mph - N/A Snow Light Snow
7:14 PM 17.6 °F 5.7 °F 8.6 °F 68% 29.84 in 3.0 mi ESE 10.4 mph - N/A Snow Light Snow
7:34 PM 17.6 °F 5.0 °F 10.4 °F 73% 29.83 in 2.0 mi ESE 11.5 mph - N/A Snow Light Snow
7:54 PM 17.6 °F 4.3 °F 10.4 °F 73% 29.82 in 7.0 mi ESE 12.7 mph - N/A Snow Light Snow
8:14 PM 17.6 °F 5.0 °F 10.4 °F 73% 29.81 in 7.0 mi ESE 11.5 mph - N/A Snow Light Snow
8:34 PM 17.6 °F 5.0 °F 10.4 °F 73% 29.80 in 4.0 mi ESE 11.5 mph - N/A Snow Light Snow
8:54 PM 19.4 °F 7.2 °F 10.4 °F 68% 29.79 in 4.0 mi ESE 11.5 mph 18.4 mph N/A Snow Light Snow
9:14 PM 19.4 °F 7.9 °F 10.4 °F 68% 29.78 in 5.0 mi ESE 10.4 mph - N/A Snow Light Snow
9:34 PM 19.4 °F 6.0 °F 10.4 °F 68% 29.77 in 2.5 mi ESE 13.8 mph 21.9 mph N/A Snow Light Snow
9:54 PM 19.4 °F 8.6 °F 12.2 °F 74% 29.76 in 1.5 mi ESE 9.2 mph - N/A Snow Light Snow
10:14 PM 19.4 °F 7.9 °F 12.2 °F 74% 29.75 in 1.5 mi SE 10.4 mph - N/A Snow Light Snow
10:34 PM 19.4 °F 7.2 °F 12.2 °F 74% 29.74 in 1.0 mi ESE 11.5 mph - N/A Snow Snow
10:54 PM 17.6 °F 6.4 °F 12.2 °F 79% 29.73 in 1.0 mi ESE 9.2 mph - N/A Snow Snow
11:14 PM 19.4 °F 8.6 °F 14.0 °F 80% 29.73 in 0.8 mi ESE 9.2 mph - N/A Snow Snow
11:34 PM 19.4 °F 10.4 °F 14.0 °F 80% 29.72 in 0.8 mi ESE 6.9 mph - N/A Snow Snow
11:54 PM 19.4 °F 9.5 °F 14.0 °F 80% 29.72 in 1.2 mi ESE 8.1 mph - N/A Snow Light Snow